Dickinson, ND

9:59 PM MDT on May 22, 2017 (GMT -0600)
Dickinson Municipal

Weather History for KDIK - November, 2012

Change the Weather History Date:

Friday, November 16, 2012

  Actual Average Record
Temperature  
Mean Temperature 39 °F 29 °F  
Max Temperature 51 °F 40 °F 69 °F (2001)
Min Temperature 27 °F 19 °F -15 °F (1959)
Degree Days  
Heating Degree Days 26 36  
Month to date heating degree days 511 512  
Since 1 July heating degree days 1448 1523  
Cooling Degree Days 0 0  
Month to date cooling degree days 0 0  
Year to date cooling degree days 591 419  
Moisture  
Dew Point 27 °F    
Average Humidity 64    
Maximum Humidity 85    
Minimum Humidity 42    
Precipitation  
Precipitation 0.00 in 0.02 in 0.57 in (1958)
Month to date precipitation 0.22 0.37  
Year to date precipitation 10.15 15.36  
Sea Level Pressure  
Sea Level Pressure 30.04 in    
Wind  
Wind Speed 9 mph (South)    
Max Wind Speed 21 mph    
Max Gust Speed 26 mph    
Visibility 10 miles    
Events      
T = Trace of Precipitation, MM = Missing Value Source: NWS Daily Summary

Daily Weather History Graph

Daily Weather History Graph

Search for Another Location

Airport or City:

Trip Planner

Search our weather history database for the weather conditions in past years. The results will help you decide how hot, cold, wet, or windy it might be!

Date:

Astronomy

Nov. 16, 2012 Rise Set
Actual Time 6:56 AM MST 4:15 PM MST
Civil Twilight 6:23 AM MST 4:48 PM MST
Nautical Twilight 5:46 AM MST 5:25 PM MST
Astronomical Twilight 5:10 AM MST 6:01 PM MST
Moon 9:55 AM MST (11/16) 7:15 PM MST (11/16)
Length of Visible Light 10h 25m
Length of Day
9h 19m
Waxing Crescent, 12% of the Moon is Illuminated
Nov 16
Waxing Crescent
Nov 20
First Quarter
Nov 28
Full
Dec 6
Last Quarter
Dec 13
New

Hourly Weather History & Observations

Time (MST) Temp. Windchill Dew Point Humidity Pressure Visibility Wind Dir Wind Speed Gust Speed Precip Events Conditions
12:56 AM 30.0 °F 19.1 °F 24.1 °F 79% 30.19 in 10.0 mi South 15.0 mph - N/A   Clear
1:56 AM 30.0 °F 17.5 °F 24.1 °F 79% 30.16 in 10.0 mi SSE 19.6 mph - N/A   Clear
2:56 AM 30.0 °F 19.5 °F 25.0 °F 82% 30.14 in 10.0 mi South 13.8 mph 23.0 mph N/A   Clear
3:56 AM 28.0 °F 16.1 °F 24.1 °F 85% 30.12 in 10.0 mi South 16.1 mph - N/A   Clear
4:56 AM 28.0 °F 17.0 °F 25.0 °F 88% 30.11 in 10.0 mi South 13.8 mph - N/A   Clear
5:56 AM 28.0 °F 16.1 °F 25.0 °F 88% 30.09 in 10.0 mi South 16.1 mph - N/A   Clear
6:56 AM 28.0 °F 15.7 °F 24.1 °F 85% 30.09 in 10.0 mi South 17.3 mph - N/A   Clear
7:56 AM 28.0 °F 17.5 °F 25.0 °F 88% 30.09 in 10.0 mi South 12.7 mph - N/A   Clear
8:56 AM 34.0 °F 25.5 °F 27.0 °F 75% 30.06 in 10.0 mi South 11.5 mph - N/A   Clear
9:56 AM 37.0 °F 30.4 °F 27.0 °F 67% 30.04 in 10.0 mi South 9.2 mph - N/A   Clear
10:56 AM 42.1 °F 36.1 °F 28.9 °F 60% 30.03 in 10.0 mi SSW 10.4 mph - N/A   Clear
11:56 AM 46.9 °F - 28.9 °F 50% 29.99 in 10.0 mi SW 8.1 mph - N/A   Clear
12:56 PM 50.0 °F - 28.9 °F 44% 29.97 in 10.0 mi SSW 5.8 mph - N/A   Clear
1:56 PM 50.0 °F - 30.0 °F 46% 29.97 in 10.0 mi South 10.4 mph - N/A   Clear
2:56 PM 48.0 °F - 30.0 °F 50% 29.97 in 10.0 mi South 6.9 mph - N/A   Clear
3:56 PM 41.0 °F 36.4 °F 30.0 °F 65% 29.99 in 10.0 mi SSE 6.9 mph - N/A   Clear
4:56 PM 37.0 °F 31.6 °F 28.9 °F 73% 30.00 in 10.0 mi South 6.9 mph - N/A   Clear
5:56 PM 37.9 °F 33.5 °F 28.0 °F 68% 30.01 in 10.0 mi SSW 5.8 mph - N/A   Clear
6:56 PM 37.0 °F 34.5 °F 28.9 °F 73% 30.01 in 10.0 mi South 3.5 mph - N/A   Clear
7:56 PM 39.0 °F 36.8 °F 28.0 °F 65% 30.01 in 10.0 mi West 3.5 mph - N/A   Clear
8:56 PM 37.0 °F 34.5 °F 28.0 °F 70% 30.00 in 10.0 mi West 3.5 mph - N/A   Clear
9:56 PM 35.1 °F - 28.0 °F 76% 30.01 in 10.0 mi Calm Calm - N/A   Overcast
10:56 PM 34.0 °F - 27.0 °F 75% 30.00 in 10.0 mi Calm Calm - N/A   Mostly Cloudy
11:56 PM 32.0 °F - 26.1 °F 79% 29.99 in 10.0 mi Calm Calm - N/A   Clear